User: anonymous   Login
Location: Unspecified
(0.0000°N, 0.0000°E)
Time: 20:38:52
(UTC+02:00)
Language:

JASON 3 - Orbit

View from above orbital plane
View from above orbital plane
View from above satellite
View from above satellite

Ground track
Ground track

The orbit data is extracted from the following two-line orbital elements,

1 41240U 16002A   24104.85431936 -.00000071  00000-0 -43912-4 0  9993
2 41240  66.0427 344.9600 0007920 274.9236  85.0875 12.80928625385265
Epoch (UTC): 13 April 2024 20:30:13
Eccentricity: 0.0007920
inclination: 66.0427°
perigee height: 1331 km
apogee height: 1344 km
right ascension of ascending node: 344.9600°
argument of perigee: 274.9236°
revolutions per day: 12.80928625
mean anomaly at epoch: 85.0875°
orbit number at epoch: 38526

The dashed part of the orbit path shows where the satellite is in the earth's shadow,  

DLR